sat.trackr.live / text

‹ back to catalog

STARLINK-11385 [DTC]

NORAD 62014 · 2024-213G

PAYLOAD ACTIVE UNKNOWN

§ Identity

Operator
Country
US
Launch date
2024-11-18
Launch site
AFWTR
Launch vehicle
Mass (kg)
RCS (m²)

Purposes: comms

External: N2YO · Heavens-Above · Gunter

§ Orbital elements

Epoch: 2026-05-24T21:45:42.767136Z

Period
91.74 min
Inclination
53.1573°
Eccentricity
0.0000992
Mean motion
15.69727158 rev/d
Perigee alt
359.0 km
Apogee alt
360.3 km
Semi-major
6,737.8 km
B*
1.1533e-3
RAAN
25.7090°
Arg perigee
38.0035°
Mean anomaly
322.1053°
Rev number
8,688

§ Raw data

STARLINK-11385 [DTC]1 62014U 24213G   26144.90674499  .00141643  00000+0  11533-2 0  99932 62014  53.1573  25.7090 0000992  38.0035 322.1053 15.69727158 86888

JSON: /api/v1/satellites/62014 · /tle

For live sub-satellite position, see the globe view (requires WebGL).

§ Visibility from observer

Set your observer location to see the next 7 days of passes ≥ 10°. The values pass through the URL so the page stays shareable.

No JS? Fill the form by hand. The geolocation button needs JavaScript.